| time (UTC) | temp F | wind direction | speed knots | gust knots | rain 1hr in | rain 24hr in | rain mn in | humidity % | barometer mb |
| 20260503224303 | 57 | 266 | 2.6 | 7.0 | 0.00 | 0.00 | 0.00 | 50 | 1009.7 |
| 20260503223755 | 57 | 290 | 2.6 | 7.8 | 0.00 | 0.00 | 0.00 | 50 | 1009.7 |
| 20260503223243 | 57 | 169 | 2.6 | 9.6 | 0.00 | 0.00 | 0.00 | 50 | 1009.7 |
| 20260503222735 | 57 | 174 | 3.5 | 13.0 | 0.00 | 0.00 | 0.00 | 49 | 1009.8 |
| 20260503222224 | 57 | 298 | 3.5 | 13.0 | 0.00 | 0.00 | 0.00 | 50 | 1009.8 |
| 20260503221714 | 57 | 306 | 2.6 | 11.3 | 0.00 | 0.00 | 0.00 | 49 | 1009.9 |
| 20260503221209 | 57 | 207 | 3.5 | 11.3 | 0.00 | 0.00 | 0.00 | 50 | 1009.9 |
| 20260503220702 | 57 | 229 | 3.5 | 11.3 | 0.00 | 0.00 | 0.00 | 48 | 1009.8 |
| 20260503215638 | 57 | 235 | 3.5 | 13.0 | 0.00 | 0.00 | 0.00 | 50 | 1009.8 |
| 20260503215132 | 57 | 259 | 3.5 | 8.7 | 0.00 | 0.00 | 0.00 | 49 | 1009.9 |
| 20260503214624 | 57 | 225 | 3.5 | 8.7 | 0.00 | 0.00 | 0.00 | 49 | 1009.8 |
| 20260503214116 | 57 | 208 | 2.6 | 9.6 | 0.00 | 0.00 | 0.00 | 48 | 1009.8 |
| 20260503213609 | 57 | 227 | 2.6 | 13.0 | 0.00 | 0.00 | 0.00 | 49 | 1009.8 |
| 20260503213103 | 57 | 203 | 3.5 | 13.0 | 0.00 | 0.00 | 0.00 | 48 | 1009.8 |
| 20260503212812 | 57 | 306 | 3.5 | 12.2 | 0.00 | 0.00 | 0.00 | 49 | 1009.8 |
| 20260503212043 | 57 | 252 | 3.5 | 12.2 | 0.00 | 0.00 | 0.00 | 49 | 1009.8 |
| 20260503211756 | 57 | 294 | 4.3 | 15.6 | 0.00 | 0.00 | 0.00 | 48 | 1009.7 |
| 20260503210521 | 58 | 242 | 4.3 | 12.2 | 0.00 | 0.00 | 0.00 | 45 | 1009.9 |
| 20260503210019 | 59 | 294 | 4.3 | 12.2 | 0.00 | 0.00 | 0.00 | 43 | 1009.8 |
| 20260503205520 | 60 | 330 | 5.2 | 13.0 | 0.00 | 0.00 | 0.00 | 43 | 1009.7 |
| 20260503205021 | 60 | 167 | 5.2 | 13.0 | 0.00 | 0.00 | 0.00 | 40 | 1009.9 |
| 20260503204518 | 60 | 273 | 4.3 | 12.2 | 0.00 | 0.00 | 0.00 | 40 | 1010.0 |
| 20260503204246 | 59 | 207 | 5.2 | 14.8 | 0.00 | 0.00 | 0.00 | 43 | 1009.9 |
| 20260503203517 | 59 | 229 | 6.1 | 15.6 | 0.00 | 0.00 | 0.00 | 39 | 1009.9 |
| 20260503203010 | 60 | 258 | 6.1 | 18.2 | 0.00 | 0.00 | 0.00 | 40 | 1010.0 |
| 20260503202738 | 60 | 263 | 6.1 | 18.2 | 0.00 | 0.00 | 0.00 | 39 | 1010.0 |
| 20260503202009 | 60 | 249 | 5.2 | 13.9 | 0.00 | 0.00 | 0.00 | 39 | 1010.2 |
| 20260503200943 | 60 | 319 | 5.2 | 20.9 | 0.00 | 0.00 | 0.00 | 39 | 1010.4 |
| 20260503200444 | 60 | 350 | 7.0 | 20.9 | 0.00 | 0.00 | 0.00 | 39 | 1010.5 |
| 20260503195944 | 60 | 260 | 6.1 | 16.5 | 0.00 | 0.00 | 0.00 | 38 | 1010.5 |
| 20260503194943 | 60 | 306 | 4.3 | 17.4 | 0.00 | 0.00 | 0.00 | 39 | 1010.7 |
| 20260503194710 | 60 | 219 | 4.3 | 17.4 | 0.00 | 0.00 | 0.00 | 41 | 1010.8 |
| 20260503193943 | 60 | 265 | 4.3 | 23.5 | 0.00 | 0.00 | 0.00 | 46 | 1010.9 |
| 20260503193440 | 60 | 252 | 6.1 | 23.5 | 0.00 | 0.00 | 0.00 | 43 | 1010.9 |
| 20260503193158 | 59 | 198 | 6.1 | 16.5 | 0.00 | 0.00 | 0.00 | 41 | 1011.0 |
| 20260503192654 | 60 | 266 | 5.2 | 16.5 | 0.00 | 0.00 | 0.00 | 44 | 1011.0 |
| 20260503191929 | 60 | 271 | 5.2 | 12.2 | 0.00 | 0.00 | 0.00 | 44 | 1011.1 |
| 20260503191419 | 60 | 213 | 6.1 | 14.8 | 0.00 | 0.00 | 0.00 | 44 | 1011.1 |
| 20260503190909 | 59 | 280 | 5.2 | 14.8 | 0.00 | 0.00 | 0.00 | 45 | 1011.1 |
| 20260503190403 | 60 | 303 | 5.2 | 13.0 | 0.00 | 0.00 | 0.00 | 42 | 1011.2 |
| 20260503190125 | 60 | 273 | 4.3 | 13.0 | 0.00 | 0.00 | 0.00 | 45 | 1011.2 |
| 20260503185401 | 60 | 323 | 4.3 | 12.2 | 0.00 | 0.00 | 0.00 | 45 | 1011.3 |
| 20260503184855 | 59 | 232 | 4.3 | 13.0 | 0.00 | 0.00 | 0.00 | 47 | 1011.3 |
| 20260503184355 | 59 | 205 | 4.3 | 13.0 | 0.00 | 0.00 | 0.00 | 44 | 1011.3 |
| 20260503183854 | 58 | 201 | 6.1 | 13.9 | 0.00 | 0.00 | 0.00 | 43 | 1011.6 |
| 20260503183353 | 58 | 273 | 7.0 | 16.5 | 0.00 | 0.00 | 0.00 | 45 | 1011.3 |
| 20260503182855 | 58 | 314 | 6.1 | 16.5 | 0.00 | 0.00 | 0.00 | 44 | 1011.5 |
| 20260503182354 | 58 | 272 | 5.2 | 15.6 | 0.00 | 0.00 | 0.00 | 44 | 1011.4 |
| 20260503182113 | 58 | 204 | 4.3 | 15.6 | 0.00 | 0.00 | 0.00 | 45 | 1011.7 |
| 20260503181353 | 58 | 229 | 4.3 | 13.0 | 0.00 | 0.00 | 0.00 | 44 | 1011.6 |
| 20260503180347 | 58 | 211 | 5.2 | 15.6 | 0.00 | 0.00 | 0.00 | 43 | 1011.8 |
| 20260503175332 | 59 | 226 | 5.2 | 15.6 | 0.00 | 0.00 | 0.00 | 42 | 1011.8 |
| 20260503175050 | 59 | 299 | 4.3 | 15.6 | 0.00 | 0.00 | 0.00 | 42 | 1011.8 |
| 20260503174548 | 59 | 151 | 4.3 | 18.2 | 0.00 | 0.00 | 0.00 | 47 | 1012.0 |
| 20260503173821 | 59 | 277 | 3.5 | 18.2 | 0.00 | 0.00 | 0.00 | 49 | 1011.9 |
| 20260503173323 | 59 | 182 | 2.6 | 8.7 | 0.00 | 0.00 | 0.00 | 47 | 1011.9 |
| 20260503172824 | 58 | 304 | 2.6 | 11.3 | 0.00 | 0.00 | 0.00 | 48 | 1012.1 |
| 20260503172310 | 57 | 289 | 3.5 | 11.3 | 0.00 | 0.00 | 0.00 | 51 | 1012.0 |
| 20260503171811 | 56 | 89 | 3.5 | 9.6 | 0.00 | 0.00 | 0.00 | 48 | 1012.1 |
| 20260503171525 | 56 | 202 | 3.5 | 9.6 | 0.00 | 0.00 | 0.00 | 48 | 1012.1 |
| 20260503170757 | 56 | 267 | 3.5 | 7.8 | 0.00 | 0.00 | 0.00 | 43 | 1012.2 |
| 20260503170522 | 57 | 290 | 3.5 | 12.2 | 0.00 | 0.00 | 0.00 | 45 | 1012.2 |
| 20260503150655 | 53 | 240 | 2.6 | 7.8 | 0.00 | 0.00 | 0.00 | 44 | 1013.2 |
| 20260503150142 | 52 | 293 | 2.6 | 8.7 | 0.00 | 0.00 | 0.00 | 49 | 1013.2 |
| 20260503140115 | 51 | 213 | 0.9 | 7.8 | 0.00 | 0.00 | 0.00 | 54 | 1013.4 |
| 20260503131041 | 46 | 192 | 1.7 | 7.8 | 0.00 | 0.00 | 0.00 | 68 | 1013.6 |
| 20260503130539 | 46 | 274 | 1.7 | 9.6 | 0.00 | 0.00 | 0.00 | 70 | 1013.5 |
| 20260503110827 | 35 | 205 | 0.0 | 3.5 | 0.00 | 0.00 | 0.00 | 85 | 1012.9 |
| 20260503110324 | 35 | 221 | 0.0 | 3.5 | 0.00 | 0.00 | 0.00 | 86 | 1012.8 |
| 20260503100200 | 34 | 158 | 0.0 | 0.0 | 0.00 | 0.00 | 0.00 | 85 | 1012.5 |
| 20260503090433 | 33 | 157 | 0.0 | 0.0 | 0.00 | 0.00 | 0.00 | 85 | 1012.6 |
| 20260503081354 | 33 | 157 | 0.0 | 1.7 | 0.00 | 0.00 | 0.00 | 85 | 1012.7 |
| 20260503080632 | 33 | 186 | 0.0 | 0.0 | 0.00 | 0.00 | 0.00 | 85 | 1012.8 |
| 20260503080326 | 33 | 186 | 0.0 | 0.9 | 0.00 | 0.00 | 0.00 | 85 | 1012.7 |
| 20260503072456 | 33 | 201 | 0.0 | 0.0 | 0.00 | 0.00 | 0.00 | 86 | 1012.8 |
| 20260503071434 | 33 | 201 | 0.0 | 0.9 | 0.00 | 0.00 | 0.00 | 86 | 1012.7 |
| 20260503070935 | 33 | 201 | 0.0 | 0.0 | 0.00 | 0.00 | 0.00 | 86 | 1012.6 |
| 20260503070420 | 33 | 201 | 0.0 | 0.0 | 0.00 | 0.00 | 0.00 | 86 | 1012.7 |
| 20260503060200 | 34 | 201 | 0.0 | 0.0 | 0.00 | 0.00 | 0.00 | 86 | 1013.3 |
| 20260503054631 | 34 | 201 | 0.0 | 0.0 | 0.00 | 0.00 | 0.00 | 86 | 1013.3 |
| 20260503054112 | 34 | 201 | 0.0 | 0.9 | 0.00 | 0.00 | 0.00 | 86 | 1013.3 |
| 20260503053612 | 34 | 201 | 0.0 | 1.7 | 0.00 | 0.00 | 0.00 | 86 | 1013.3 |
| 20260503053104 | 34 | 173 | 0.0 | 0.9 | 0.00 | 0.00 | 0.00 | 86 | 1013.4 |
| 20260503052540 | 34 | 173 | 0.0 | 1.7 | 0.00 | 0.00 | 0.00 | 86 | 1013.4 |
| 20260503052031 | 34 | 187 | 0.0 | 1.7 | 0.00 | 0.00 | 0.00 | 86 | 1013.4 |
| 20260503051530 | 34 | 186 | 0.0 | 0.0 | 0.00 | 0.00 | 0.00 | 86 | 1013.4 |
| 20260503051025 | 34 | 186 | 0.0 | 0.0 | 0.00 | 0.00 | 0.00 | 86 | 1013.4 |
| 20260503050525 | 34 | 186 | 0.0 | 0.0 | 0.00 | 0.00 | 0.00 | 85 | 1013.4 |
| 20260503050018 | 34 | 186 | 0.0 | 0.0 | 0.00 | 0.00 | 0.00 | 85 | 1013.5 |
| 20260503045728 | 34 | 186 | 0.0 | 0.0 | 0.00 | 0.00 | 0.00 | 85 | 1013.5 |
| 20260503044938 | 34 | 186 | 0.0 | 1.7 | 0.00 | 0.00 | 0.00 | 85 | 1013.5 |
| 20260503044430 | 34 | 186 | 0.0 | 1.7 | 0.00 | 0.00 | 0.00 | 85 | 1013.6 |
| 20260503043919 | 34 | 186 | 0.0 | 0.0 | 0.00 | 0.00 | 0.00 | 85 | 1013.6 |
| 20260503043333 | 35 | 186 | 0.0 | 0.0 | 0.00 | 0.00 | 0.00 | 84 | 1013.5 |
| 20260503042825 | 35 | 186 | 0.0 | 0.0 | 0.00 | 0.00 | 0.00 | 84 | 1013.5 |
| 20260503042320 | 35 | 186 | 0.0 | 1.7 | 0.00 | 0.00 | 0.00 | 84 | 1013.6 |
| 20260503041817 | 35 | 186 | 0.0 | 1.7 | 0.00 | 0.00 | 0.00 | 84 | 1013.6 |
| 20260503041308 | 35 | 186 | 0.0 | 0.0 | 0.00 | 0.00 | 0.00 | 83 | 1013.7 |
| 20260503040757 | 35 | 188 | 0.0 | 0.0 | 0.00 | 0.00 | 0.00 | 83 | 1013.7 |
| 20260503040240 | 35 | 188 | 0.0 | 0.0 | 0.00 | 0.00 | 0.00 | 83 | 1013.7 |
| 20260503035739 | 35 | 188 | 0.0 | 0.9 | 0.00 | 0.00 | 0.00 | 82 | 1013.6 |
| 20260503035223 | 35 | 187 | 0.0 | 0.9 | 0.00 | 0.00 | 0.00 | 82 | 1013.7 |
| 20260503034705 | 35 | 188 | 0.0 | 0.0 | 0.00 | 0.00 | 0.00 | 82 | 1013.6 |
| 20260503034346 | 35 | 188 | 0.0 | 0.0 | 0.00 | 0.00 | 0.00 | 82 | 1013.7 |
| 20260503033621 | 35 | 188 | 0.0 | 0.0 | 0.00 | 0.00 | 0.00 | 81 | 1013.7 |
| 20260503033103 | 36 | 188 | 0.0 | 0.0 | 0.00 | 0.00 | 0.00 | 81 | 1013.7 |
| 20260503032606 | 36 | 188 | 0.0 | 0.0 | 0.00 | 0.00 | 0.00 | 81 | 1013.8 |
| 20260503032028 | 36 | 188 | 0.0 | 0.0 | 0.00 | 0.00 | 0.00 | 81 | 1013.8 |
| 20260503031524 | 36 | 188 | 0.0 | 0.0 | 0.00 | 0.00 | 0.00 | 80 | 1013.8 |
| 20260503031004 | 36 | 188 | 0.0 | 0.0 | 0.00 | 0.00 | 0.00 | 80 | 1013.8 |
| 20260503030437 | 36 | 188 | 0.0 | 0.0 | 0.00 | 0.00 | 0.00 | 80 | 1013.9 |
| 20260503025932 | 36 | 188 | 0.0 | 0.0 | 0.00 | 0.00 | 0.00 | 80 | 1013.9 |
| 20260503025428 | 37 | 188 | 0.0 | 0.0 | 0.00 | 0.00 | 0.00 | 79 | 1013.8 |
| 20260503024904 | 37 | 188 | 0.0 | 0.9 | 0.00 | 0.00 | 0.00 | 79 | 1013.9 |
| 20260503024339 | 37 | 188 | 0.0 | 0.9 | 0.00 | 0.00 | 0.00 | 78 | 1014.0 |
| 20260503024103 | 37 | 259 | 0.0 | 0.0 | 0.00 | 0.00 | 0.00 | 78 | 1014.0 |
| 20260503023327 | 37 | 259 | 0.0 | 0.0 | 0.00 | 0.00 | 0.00 | 78 | 1014.1 |
| 20260503022814 | 38 | 259 | 0.0 | 0.0 | 0.00 | 0.00 | 0.00 | 77 | 1014.1 |
| 20260503022248 | 38 | 259 | 0.0 | 0.0 | 0.00 | 0.00 | 0.00 | 76 | 1014.1 |
| 20260503021731 | 38 | 259 | 0.0 | 0.0 | 0.00 | 0.00 | 0.00 | 76 | 1014.1 |
| 20260503021225 | 38 | 259 | 0.0 | 0.0 | 0.00 | 0.00 | 0.00 | 75 | 1014.1 |
| 20260503020724 | 38 | 259 | 0.0 | 0.9 | 0.00 | 0.00 | 0.00 | 74 | 1014.0 |
| 20260503020220 | 39 | 259 | 0.0 | 0.9 | 0.00 | 0.00 | 0.00 | 73 | 1014.2 |
| 20260503015721 | 39 | 259 | 0.0 | 0.0 | 0.00 | 0.00 | 0.00 | 72 | 1014.2 |
| 20260503015208 | 39 | 259 | 0.0 | 0.0 | 0.00 | 0.00 | 0.00 | 72 | 1014.1 |
| 20260503014655 | 40 | 259 | 0.0 | 0.0 | 0.00 | 0.00 | 0.00 | 71 | 1014.1 |
| 20260503013630 | 40 | 259 | 0.0 | 0.9 | 0.00 | 0.00 | 0.00 | 70 | 1014.1 |
| 20260503013129 | 40 | 259 | 0.0 | 3.5 | 0.00 | 0.00 | 0.00 | 69 | 1014.2 |
| 20260503012834 | 40 | 261 | 0.9 | 3.5 | 0.00 | 0.00 | 0.00 | 69 | 1014.1 |
| 20260503012055 | 41 | 321 | 0.9 | 4.3 | 0.00 | 0.00 | 0.00 | 69 | 1014.1 |
| 20260503011555 | 41 | 244 | 0.9 | 4.3 | 0.00 | 0.00 | 0.00 | 69 | 1014.1 |
| 20260503011037 | 41 | 193 | 0.0 | 4.3 | 0.00 | 0.00 | 0.00 | 69 | 1014.1 |
| 20260503010529 | 41 | 180 | 0.0 | 4.3 | 0.00 | 0.00 | 0.00 | 69 | 1014.0 |
| 20260503010013 | 41 | 250 | 0.9 | 4.3 | 0.00 | 0.00 | 0.00 | 68 | 1014.1 |
| 20260503005733 | 41 | 184 | 0.9 | 5.2 | 0.00 | 0.00 | 0.00 | 68 | 1014.1 |
| 20260503004958 | 41 | 290 | 0.9 | 5.2 | 0.00 | 0.00 | 0.00 | 68 | 1014.1 |
| 20260503004448 | 41 | 273 | 0.9 | 6.1 | 0.00 | 0.00 | 0.00 | 67 | 1014.1 |
| 20260503003937 | 41 | 231 | 0.9 | 6.1 | 0.00 | 0.00 | 0.00 | 67 | 1014.1 |
| 20260503003433 | 41 | 190 | 0.9 | 5.2 | 0.00 | 0.00 | 0.00 | 68 | 1014.1 |
| 20260503002927 | 41 | 259 | 0.9 | 5.2 | 0.00 | 0.00 | 0.00 | 69 | 1014.0 |
| 20260503002416 | 42 | 255 | 0.9 | 4.3 | 0.00 | 0.00 | 0.00 | 69 | 1013.9 |
| 20260503002143 | 42 | 255 | 0.9 | 4.3 | 0.00 | 0.00 | 0.00 | 68 | 1013.9 |
| 20260503001408 | 42 | 304 | 1.7 | 4.3 | 0.00 | 0.00 | 0.00 | 68 | 1014.0 |
| 20260503000851 | 42 | 223 | 0.9 | 4.3 | 0.00 | 0.00 | 0.00 | 68 | 1014.0 |
| 20260503000339 | 42 | 308 | 0.9 | 3.5 | 0.00 | 0.00 | 0.00 | 68 | 1013.9 |
| 20260502235829 | 42 | 288 | 0.9 | 3.5 | 0.00 | 0.00 | 0.00 | 68 | 1013.9 |
| 20260502235330 | 42 | 229 | 1.7 | 7.8 | 0.00 | 0.00 | 0.00 | 67 | 1013.9 |
| 20260502234831 | 42 | 182 | 0.9 | 7.8 | 0.00 | 0.00 | 0.00 | 67 | 1014.0 |
| 20260502233816 | 42 | 284 | 0.9 | 5.2 | 0.00 | 0.00 | 0.00 | 66 | 1014.0 |
| 20260502233259 | 42 | 299 | 0.9 | 3.5 | 0.00 | 0.00 | 0.00 | 64 | 1014.1 |
| 20260502232749 | 42 | 306 | 0.9 | 4.3 | 0.00 | 0.00 | 0.00 | 65 | 1014.0 |
| 20260502232240 | 42 | 323 | 0.9 | 4.3 | 0.00 | 0.00 | 0.00 | 67 | 1014.1 |
| 20260502231731 | 42 | 264 | 0.9 | 3.5 | 0.00 | 0.00 | 0.00 | 66 | 1014.1 |
| 20260502231223 | 42 | 327 | 0.9 | 5.2 | 0.00 | 0.00 | 0.00 | 67 | 1014.0 |
| 20260502230718 | 42 | 165 | 0.9 | 5.2 | 0.00 | 0.00 | 0.00 | 66 | 1014.0 |
| 20260502230207 | 42 | 200 | 0.9 | 4.3 | 0.00 | 0.00 | 0.00 | 68 | 1014.1 |
| 20260502225658 | 42 | 290 | 1.7 | 8.7 | 0.00 | 0.00 | 0.00 | 66 | 1014.1 |